Aniak, AK

9:24 AM AKDT on August 28, 2016 (GMT -0800)
Aniak

Weather History for PANI - January, 2013

Change the Weather History Date:

Thursday, January 10, 2013

  Actual Average Record
Temperature  
Mean Temperature 24 °F -  
Max Temperature 33 °F 9 °F 39 °F (1997)
Min Temperature 15 °F 0 °F -29 °F (2000)
Degree Days  
Heating Degree Days 41    
Moisture  
Dew Point 22 °F    
Average Humidity 83    
Maximum Humidity 93    
Minimum Humidity 47    
Precipitation  
Precipitation 0.00 in - - ()
Sea Level Pressure  
Sea Level Pressure 29.78 in    
Wind  
Wind Speed 8 mph (SE)    
Max Wind Speed 17 mph    
Max Gust Speed 29 mph    
Visibility 8 miles    
Events      
Averages and records for this station are not official NWS values.
T = Trace of Precipitation, MM = Missing Value Source: NWS Daily Summary

Daily Weather History Graph

Daily Weather History Graph

Search for Another Location

Airport or City:

Trip Planner

Search our weather history database for the weather conditions in past years. The results will help you decide how hot, cold, wet, or windy it might be!

Date:

Astronomy

Jan. 10, 2013 Rise Set
Actual Time 10:46 AM AKST 4:46 PM AKST
Civil Twilight 9:46 AM AKST 5:45 PM AKST
Nautical Twilight 8:48 AM AKST 6:43 PM AKST
Astronomical Twilight 7:55 AM AKST 7:37 PM AKST
Moon 9:32 AM AKST (1/10) 4:14 PM AKST (1/10)
Length of Visible Light 7h 58m
Length of Day
6h 00m
Waning Crescent, 1% of the Moon is Illuminated
Jan 10
Waning Crescent
Jan 11
New
Jan 18
First Quarter
Jan 26
Full
Feb 3
Last Quarter

Hourly Weather History & Observations

Time (AKST) Temp. Windchill Dew Point Humidity Pressure Visibility Wind Dir Wind Speed Gust Speed Precip Events Conditions
12:16 AM 28.4 °F 20.4 °F 24.8 °F 86% 29.64 in 10.0 mi SSE 8.1 mph - N/A   Overcast
12:36 AM 28.4 °F 21.2 °F 24.8 °F 86% 29.65 in 2.5 mi SSE 6.9 mph - N/A   Overcast
12:56 AM 28.4 °F 22.2 °F 26.6 °F 93% 29.66 in 2.0 mi SE 5.8 mph - N/A   Overcast
1:16 AM 30.2 °F 21.3 °F 28.4 °F 93% 29.67 in 3.0 mi SSW 10.4 mph 16.1 mph N/A   Overcast
1:36 AM 32.0 °F 22.5 °F 28.4 °F 87% 29.68 in 3.0 mi SW 12.7 mph 26.5 mph N/A   Overcast
1:56 AM 32.0 °F 23.0 °F 28.4 °F 87% 29.70 in 2.0 mi SW 11.5 mph 24.2 mph N/A   Overcast
2:16 AM 30.2 °F 20.2 °F 28.4 °F 93% 29.71 in 1.8 mi WSW 12.7 mph 24.2 mph N/A   Overcast
2:36 AM 30.2 °F 21.3 °F 28.4 °F 93% 29.73 in 1.2 mi WSW 10.4 mph 26.5 mph N/A   Overcast
2:56 AM 30.2 °F 19.8 °F 26.6 °F 86% 29.75 in 4.0 mi WSW 13.8 mph 21.9 mph N/A   Overcast
3:16 AM 30.2 °F 21.9 °F 26.6 °F 86% 29.77 in 8.0 mi SW 9.2 mph 23.0 mph N/A   Overcast
3:36 AM 28.4 °F 19.7 °F 24.8 °F 86% 29.78 in 4.0 mi WSW 9.2 mph 20.7 mph N/A   Overcast
3:56 AM 28.4 °F 19.1 °F 24.8 °F 86% 29.80 in 10.0 mi SW 10.4 mph 19.6 mph N/A   Overcast
4:16 AM 28.4 °F 21.2 °F 24.8 °F 86% 29.80 in 10.0 mi SW 6.9 mph - N/A   Overcast
4:36 AM 28.4 °F 19.1 °F 24.8 °F 86% 29.80 in 10.0 mi WSW 10.4 mph - N/A   Overcast
4:56 AM 28.4 °F 21.2 °F 24.8 °F 86% 29.82 in 10.0 mi SW 6.9 mph - N/A   Overcast
5:16 AM 28.4 °F 23.3 °F 24.8 °F 86% 29.84 in 10.0 mi WSW 4.6 mph - N/A   Overcast
5:36 AM 26.6 °F 18.2 °F 23.0 °F 86% 29.84 in 10.0 mi SW 8.1 mph - N/A   Overcast
5:56 AM 26.6 °F 22.6 °F 21.2 °F 80% 29.85 in 10.0 mi SSW 3.5 mph - N/A   Overcast
6:16 AM 24.8 °F 17.9 °F 21.2 °F 86% 29.86 in 10.0 mi SW 5.8 mph - N/A   Overcast
6:36 AM 24.8 °F 20.5 °F 21.2 °F 86% 29.87 in 10.0 mi SW 3.5 mph - N/A   Overcast
6:56 AM 24.8 °F 19.1 °F 21.2 °F 86% 29.87 in 10.0 mi WSW 4.6 mph - N/A   Overcast
7:16 AM 24.8 °F 16.9 °F 21.2 °F 86% 29.87 in 10.0 mi WSW 6.9 mph - N/A   Overcast
7:36 AM 24.8 °F - 21.2 °F 86% 29.88 in 10.0 mi Calm Calm - N/A   Overcast
7:56 AM 24.8 °F - 21.2 °F 86% 29.88 in 10.0 mi Calm Calm - N/A   Overcast
8:16 AM 23.0 °F - 21.2 °F 93% 29.89 in 10.0 mi Calm Calm - N/A   Overcast
8:36 AM 23.0 °F - 21.2 °F 93% 29.89 in 2.5 mi Calm Calm - N/A   Overcast
8:56 AM 23.0 °F - 21.2 °F 93% 29.89 in 1.0 mi Calm Calm - N/A   Overcast
9:16 AM 21.2 °F - 19.4 °F 93% 29.89 in 0.8 mi Calm Calm - N/A   Overcast
9:36 AM 21.2 °F 14.9 °F 19.4 °F 93% 29.89 in 0.2 mi East 4.6 mph - N/A   Overcast
9:56 AM 19.4 °F 11.5 °F 17.6 °F 93% 29.89 in 0.5 mi East 5.8 mph - N/A   Overcast
10:16 AM 17.6 °F 10.7 °F 15.8 °F 93% 29.89 in 1.0 mi East 4.6 mph - N/A   Overcast
10:36 AM 17.6 °F 10.7 °F 15.8 °F 93% 29.89 in 0.5 mi East 4.6 mph - N/A   Overcast
10:56 AM 17.6 °F - 15.8 °F 93% 29.89 in 10.0 mi Calm Calm - N/A   Scattered Clouds
11:16 AM 15.8 °F - 12.2 °F 86% 29.89 in 10.0 mi Calm Calm - N/A   Clear
11:36 AM 15.8 °F - 12.2 °F 86% 29.89 in 10.0 mi Calm Calm - N/A   Partly Cloudy
11:56 AM 15.8 °F - 14.0 °F 93% 29.89 in 10.0 mi Calm Calm - N/A   Partly Cloudy
12:16 PM 17.6 °F 9.3 °F 14.0 °F 86% 29.89 in 10.0 mi ENE 5.8 mph - N/A   Scattered Clouds
12:36 PM 17.6 °F 10.7 °F 14.0 °F 86% 29.88 in 10.0 mi ESE 4.6 mph - N/A   Overcast
12:56 PM 21.2 °F 14.9 °F 19.4 °F 93% 29.88 in 10.0 mi SE 4.6 mph - N/A   Mostly Cloudy
1:16 PM 21.2 °F 11.7 °F 19.4 °F 93% 29.86 in 10.0 mi ESE 8.1 mph - N/A   Overcast
1:36 PM 21.2 °F 10.9 °F 19.4 °F 93% 29.86 in 10.0 mi ESE 9.2 mph - N/A   Mostly Cloudy
1:56 PM 24.8 °F 15.3 °F 21.2 °F 86% 29.86 in 10.0 mi ESE 9.2 mph - N/A   Overcast
2:16 PM 24.8 °F 14.0 °F 21.2 °F 86% 29.84 in 10.0 mi ESE 11.5 mph - N/A   Overcast
2:36 PM 26.6 °F 16.8 °F 21.2 °F 80% 29.83 in 10.0 mi ESE 10.4 mph - N/A   Overcast
2:56 PM 26.6 °F 16.8 °F 21.2 °F 80% 29.83 in 10.0 mi ESE 10.4 mph - N/A   Mostly Cloudy
3:16 PM 26.6 °F 15.7 °F 21.2 °F 80% 29.82 in 10.0 mi ESE 12.7 mph - N/A   Mostly Cloudy
3:36 PM 26.6 °F 16.8 °F 21.2 °F 80% 29.81 in 10.0 mi ESE 10.4 mph 16.1 mph N/A   Clear
3:56 PM 26.6 °F 14.7 °F 21.2 °F 80% 29.80 in 10.0 mi ESE 15.0 mph - N/A   Clear
4:16 PM 28.4 °F 18.0 °F 21.2 °F 74% 29.79 in 10.0 mi ESE 12.7 mph - N/A   Clear
4:36 PM 28.4 °F 18.5 °F 21.2 °F 74% 29.78 in 10.0 mi ESE 11.5 mph - N/A   Clear
4:56 PM 28.4 °F 19.1 °F 21.2 °F 74% 29.77 in 10.0 mi ESE 10.4 mph 17.3 mph N/A   Clear
5:16 PM 28.4 °F 17.0 °F 23.0 °F 80% 29.75 in 10.0 mi ESE 15.0 mph - N/A   Scattered Clouds
5:36 PM 28.4 °F 17.5 °F 23.0 °F 80% 29.74 in 10.0 mi ESE 13.8 mph 23.0 mph N/A   Mostly Cloudy
5:56 PM 28.4 °F 17.0 °F 23.0 °F 80% 29.72 in 10.0 mi ESE 15.0 mph 19.6 mph N/A   Partly Cloudy
6:16 PM 28.4 °F 17.0 °F 23.0 °F 80% 29.70 in 10.0 mi ESE 15.0 mph - N/A   Clear
6:36 PM 28.4 °F 17.0 °F 23.0 °F 80% 29.71 in 10.0 mi ESE 15.0 mph - N/A   Mostly Cloudy
6:56 PM 30.2 °F 18.5 °F 23.0 °F 75% 29.69 in 10.0 mi ESE 17.3 mph 21.9 mph N/A   Mostly Cloudy
7:16 PM 30.2 °F 19.3 °F 24.8 °F 80% 29.70 in 10.0 mi ESE 15.0 mph 27.6 mph N/A   Overcast
7:36 PM 30.2 °F 18.5 °F 24.8 °F 80% 29.68 in 10.0 mi ESE 17.3 mph 21.9 mph N/A   Overcast
7:56 PM 32.0 °F 23.6 °F 24.8 °F 75% 29.68 in 10.0 mi SE 10.4 mph 19.6 mph N/A   Overcast
8:16 PM 33.8 °F 23.9 °F 23.0 °F 65% 29.67 in 10.0 mi ESE 15.0 mph 25.3 mph N/A   Overcast
8:36 PM 33.8 °F 23.2 °F 23.0 °F 65% 29.65 in 10.0 mi ESE 17.3 mph 23.0 mph N/A   Mostly Cloudy
8:56 PM 33.8 °F 24.8 °F 21.2 °F 60% 29.65 in 10.0 mi ESE 12.7 mph 16.1 mph N/A   Partly Cloudy
9:16 PM 30.2 °F 21.3 °F 23.0 °F 75% 29.64 in 10.0 mi ESE 10.4 mph - N/A   Partly Cloudy
9:36 PM 32.0 °F 23.6 °F 23.0 °F 69% 29.63 in 10.0 mi SE 10.4 mph - N/A   Partly Cloudy
9:56 PM 32.0 °F 23.6 °F 21.2 °F 64% 29.63 in 10.0 mi SE 10.4 mph 18.4 mph N/A   Scattered Clouds
10:16 PM 32.0 °F 24.8 °F 23.0 °F 69% 29.64 in 10.0 mi SE 8.1 mph - N/A   Overcast
10:36 PM 32.0 °F 25.6 °F 23.0 °F 69% 29.65 in 10.0 mi SSE 6.9 mph - N/A   Mostly Cloudy
10:56 PM 32.0 °F 21.2 °F 24.8 °F 75% 29.64 in 10.0 mi SE 16.1 mph 23.0 mph N/A   Partly Cloudy
11:16 PM - - - N/A% 29.62 in 10.0 mi SE 17.3 mph 28.8 mph N/A   Mostly Cloudy
11:36 PM 32.0 °F 22.5 °F 24.8 °F 75% 29.62 in 10.0 mi SE 12.7 mph 21.9 mph N/A   Overcast
11:56 PM 33.8 °F 24.8 °F 24.8 °F 70% 29.62 in 10.0 mi ESE 12.7 mph 17.3 mph N/A   Overcast